Dewpoint
73 72 72 71 70 69 70 68 57 62 60 55 56 59 58 62 63 61 63 64 61 65 66 64 63 64 63 62 62 64 65 57 61 51 50 65 70 71 72 73 73 74 74 74 75 75 75 76 77 77 77 77 77 77 77 77 77 77 77 77 77 77 77 76 76 76 76 76 76 76 76 76 76 76 76 76 76 76 75 75 75 75 75 75 75 76 76 76 75 76 76 76 75 75 76 75 75
72 71 71 71 69 70 65 68 60 58 58 55 56 60 60 61 61 61 62 63 65 65 65 66 65 65 67 68 64 62 63 66 66 66 68 69 71 71 73 73 73 73 74 74 74 75 75 76 77 77 77 77 77 77 77 77 77 76 77 77 77 76 76 76 76 76 76 76 76 76 76 76 76 75 75 75 75 75 75 75 75 75 75 75 75 76 76 76 76 76 76 76 76 76 76 76 75
71 70 70 70 69 68 68 67 56 55 54 52 56 60 63 59 60 60 65 66 65 65 66 66 66 66 64 66 63 63 61 67 67 68 68 70 69 70 72 73 73 74 74 74 74 75 75 76 77 77 77 77 77 77 76 76 76 76 76 76 76 76 76 76 76 76 76 76 76 76 76 76 75 75 75 75 76 75 75 75 75 75 75 75 75 75 75 75 75 75 75 75 75 75 75 75 75
69 69 68 68 65 67 62 62 59 56 54 55 55 59 61 61 61 63 66 66 64 66 65 65 65 66 65 61 63 64 63 65 67 68 68 69 69 71 72 73 74 74 74 74 74 75 75 76 77 77 77 77 76 76 76 76 76 76 76 76 76 76 76 76 76 76 76 76 76 76 76 75 75 76 76 76 76 76 75 75 75 75 75 75 75 75 74 74 75 75 75 75 75 75 75 75 75
69 71 72 67 65 62 63 60 59 57 54 57 54 60 61 62 64 65 66 66 64 65 66 65 65 65 67 64 63 62 63 66 67 68 68 69 71 72 72 73 73 74 74 74 75 75 75 77 77 77 77 76 76 76 76 76 76 76 76 76 76 76 76 76 76 76 76 76 76 76 75 75 75 76 75 76 76 75 75 75 75 75 75 75 74 74 74 75 75 76 75 75 75 75 75 75 75
72 71 72 71 64 69 65 58 57 57 59 63 59 59 63 63 64 65 65 65 66 66 66 66 62 62 62 63 64 64 66 64 67 68 69 69 71 72 72 73 72 73 73 74 75 75 76 77 77 76 76 76 76 76 76 76 76 76 76 76 76 76 76 76 76 76 76 76 76 75 75 75 75 75 75 75 75 75 76 75 75 75 75 75 74 75 75 75 75 75 74 74 74 75 74 74 74
68 69 69 69 67 67 58 57 56 58 61 62 62 62 64 64 64 65 63 62 65 66 66 64 62 61 61 63 64 66 67 68 67 68 69 70 70 71 72 71 72 72 73 74 75 75 76 77 77 76 76 76 76 76 77 77 76 76 76 76 76 76 76 76 76 76 76 76 75 75 75 75 75 75 75 74 75 75 76 75 75 75 75 75 75 74 74 74 74 74 74 74 75 75 74 74 75
72 70 68 64 61 63 58 58 58 60 61 63 64 63 65 65 66 65 64 61 61 65 64 63 62 61 61 64 63 65 67 67 69 69 70 70 70 70 71 71 71 72 73 74 75 75 77 77 76 76 77 76 76 76 76 76 76 76 76 76 76 76 76 75 77 76 76 76 76 75 75 75 75 74 74 75 75 75 75 75 75 75 75 74 74 74 74 74 74 74 74 75 75 74 74 75 75
70 69 70 64 59 61 58 57 58 64 62 62 64 65 66 66 65 64 64 64 64 65 64 61 61 60 62 63 63 65 67 68 69 70 70 70 70 70 70 71 71 72 73 74 75 76 76 77 77 77 77 76 76 76 76 76 76 76 76 76 76 76 76 76 76 76 76 76 75 75 75 75 75 75 75 75 75 75 75 75 75 75 74 74 74 74 75 74 75 75 75 75 75 74 74 74 74
69 68 62 60 62 56 56 57 58 62 61 64 63 64 65 66 66 65 64 64 64 65 64 60 61 61 63 62 63 65 66 68 69 69 69 69 69 69 70 71 72 72 73 74 75 76 76 77 77 77 76 76 76 76 76 75 76 76 76 76 76 76 76 75 75 76 76 76 75 75 75 75 75 75 75 75 75 75 75 75 75 75 74 74 75 75 75 75 75 74 74 75 75 75 74 74 74
65 69 68 59 57 55 54 56 59 63 61 64 65 66 66 67 66 65 65 64 65 65 62 62 62 62 63 63 63 66 67 68 68 68 69 68 68 69 70 71 72 72 73 74 75 75 76 75 76 76 76 76 76 76 76 76 76 76 76 76 76 76 76 75 76 75 76 76 76 75 75 75 75 75 75 75 75 75 75 75 74 75 75 75 75 75 75 75 75 75 75 75 75 75 75 74 74
63 62 63 56 55 55 57 57 59 63 63 64 64 66 68 67 67 65 64 63 63 63 60 60 61 63 63 63 65 65 67 67 67 68 67 67 68 69 70 70 71 72 74 74 75 75 75 76 75 76 76 76 76 76 76 76 76 76 76 76 76 76 76 76 76 76 76 76 75 75 75 75 75 75 75 75 75 75 75 75 75 75 75 75 75 75 75 75 75 75 75 74 75 74 75 74 75
63 63 60 58 58 58 59 60 60 60 62 63 63 66 67 66 64 67 65 65 64 63 62 63 63 63 62 63 66 65 65 66 67 67 66 67 68 69 71 72 73 73 74 75 75 75 75 75 75 75 75 76 76 77 77 76 76 76 76 76 77 77 76 76 75 76 76 76 75 75 75 76 75 75 75 75 75 76 76 75 75 75 75 75 75 75 75 75 75 75 75 75 75 74 75 74 74
63 64 61 55 61 59 59 60 61 60 60 62 64 67 67 65 66 68 67 63 63 63 62 61 62 64 63 64 66 64 64 66 66 66 66 68 70 71 71 72 72 73 74 74 74 74 74 75 75 75 75 75 76 76 76 76 76 76 76 76 76 76 76 75 76 76 76 75 75 76 76 76 75 75 75 75 76 76 75 75 75 75 75 75 75 75 75 75 75 75 75 75 74 74 74 74 73
64 68 63 58 57 59 61 59 61 61 60 63 64 65 66 66 67 67 66 65 64 68 68 64 63 63 61 62 63 64 64 65 66 66 68 70 71 70 70 72 73 74 74 74 74 74 74 75 75 75 76 76 75 75 75 75 76 75 75 76 75 76 76 76 76 76 75 76 75 76 76 76 75 75 75 75 75 75 75 74 75 75 75 75 76 75 75 75 75 75 76 75 75 75 75 74 74
66 65 63 57 56 56 59 60 59 59 61 65 66 65 65 67 68 66 66 68 67 67 67 63 62 68 63 62 63 64 65 65 65 67 69 70 70 70 71 72 73 73 73 74 74 74 74 74 75 75 75 75 75 75 75 75 75 76 76 76 76 76 76 75 76 76 76 76 76 76 75 75 75 75 76 75 75 75 75 74 74 75 75 76 76 76 75 75 75 76 75 75 74 75 74 74 74
67 65 58 57 55 58 60 58 57 58 64 65 65 65 63 65 67 69 71 68 65 65 66 67 67 62 62 63 64 65 65 66 66 68 68 69 69 70 71 72 72 72 72 73 74 74 74 75 75 75 75 75 75 75 75 74 75 76 75 76 76 76 76 76 76 76 76 76 76 76 75 75 75 75 74 74 75 75 74 75 74 75 75 76 76 76 75 75 75 75 75 75 75 74 74 74 74
65 60 57 55 56 57 58 58 57 61 63 64 66 66 65 64 66 67 69 66 66 66 66 67 66 62 63 64 65 65 65 65 65 66 67 68 69 69 69 70 71 71 71 71 73 74 74 74 74 75 75 75 75 75 75 75 75 75 74 76 76 75 76 76 75 75 76 75 76 76 75 76 75 74 75 75 75 75 74 75 74 75 75 76 76 76 75 75 75 76 76 76 75 74 74 73 74
61 59 58 54 58 58 60 60 61 61 63 64 65 66 65 65 67 68 66 65 65 63 65 65 60 61 62 64 64 64 64 63 65 66 67 67 68 68 68 69 70 70 70 71 72 74 74 74 74 74 74 74 74 74 75 75 74 74 75 76 76 76 76 76 76 76 75 75 75 75 76 75 74 75 75 76 77 75 75 75 75 75 75 76 76 75 75 75 75 75 75 75 75 75 74 73 73
60 58 57 56 59 60 63 62 62 63 64 64 64 64 66 65 67 67 65 64 64 62 62 63 59 59 61 63 64 64 63 63 64 66 67 67 67 67 68 69 69 70 70 71 72 73 73 74 74 74 74 74 74 74 75 74 74 74 75 75 76 76 75 76 75 75 75 75 75 75 75 74 75 74 76 76 75 74 74 74 75 75 75 76 76 76 75 75 75 75 76 76 79 77 74 73 75
57 56 53 54 58 59 63 64 62 63 65 65 65 65 64 66 66 66 66 63 63 63 64 60 58 59 60 62 63 63 62 62 64 65 66 67 67 67 68 69 69 69 70 71 72 73 73 73 74 74 74 74 74 74 74 74 74 74 74 75 75 74 74 74 74 74 74 74 74 74 74 74 74 75 74 74 74 74 73 74 75 75 74 74 77 74 74 75 76 75 75 77 74 75 74 74 73
53 55 54 55 58 58 63 63 64 64 66 65 65 63 63 68 67 65 65 62 61 62 63 60 59 59 60 61 61 62 61 61 63 64 65 66 66 67 67 68 68 69 70 71 71 72 73 73 73 74 74 73 74 74 74 74 74 74 74 74 74 74 74 74 74 74 74 74 74 74 74 74 74 74 74 73 73 74 74 74 74 74 74 75 77 74 74 74 74 74 74 74 75 75 74 73 74
47 47 52 52 57 60 63 62 64 64 65 64 63 65 66 66 65 65 64 65 64 69 64 60 59 59 60 61 61 60 60 61 62 63 64 64 65 66 67 67 68 68 70 71 72 72 72 73 73 73 73 73 73 74 74 75 74 74 74 74 74 74 74 74 74 74 74 74 75 75 73 73 74 73 73 73 73 74 73 74 74 74 74 74 75 74 74 74 74 74 74 74 74 74 73 73 73
47 45 45 50 55 58 63 60 62 63 64 64 65 64 65 66 63 64 64 64 68 68 69 63 58 58 59 59 59 60 59 60 61 62 63 64 65 65 66 67 68 69 70 71 72 72 73 72 73 73 73 73 73 73 73 74 73 73 74 76 75 75 75 74 74 75 75 75 75 75 76 74 73 73 73 73 73 73 74 74 74 74 74 74 75 74 74 74 74 73 74 74 74 74 72 71 72
44 44 44 54 56 62 60 60 60 63 64 65 63 62 64 65 66 65 64 63 67 67 68 62 58 58 58 59 59 58 59 60 60 61 62 63 64 65 66 67 68 69 69 71 71 72 72 72 73 73 73 72 73 73 73 73 73 73 74 75 74 77 74 74 74 75 75 75 76 76 76 74 73 73 73 73 74 73 74 75 74 74 75 74 74 73 73 73 73 74 74 73 73 73 72 70 71
40 41 43 49 56 59 58 60 61 64 64 62 60 60 63 64 65 62 64 63 67 69 66 59 58 58 58 58 58 58 59 59 60 60 60 61 62 64 66 67 68 68 69 70 71 71 72 72 72 72 72 72 72 72 72 72 72 73 74 74 74 76 74 74 74 74 74 75 74 75 75 74 73 74 74 74 73 74 74 74 74 74 74 73 73 73 74 73 73 74 74 73 72 72 71 71 72
34 31 32 39 58 57 58 60 61 63 64 61 59 59 62 64 62 62 62 65 65 65 64 62 58 58 58 58 58 58 57 58 59 59 60 61 62 64 66 67 68 68 69 70 70 71 72 72 72 72 72 73 72 71 71 71 72 73 74 73 74 74 73 74 74 73 73 73 73 75 75 75 74 74 74 74 74 74 73 73 73 74 73 73 74 74 75 75 75 74 73 73 73 73 74 74 73
29 28 27 29 57 57 59 61 62 61 62 61 60 61 61 63 62 63 62 64 64 64 66 66 64 58 58 58 58 58 57 58 59 58 59 60 61 63 65 67 67 68 69 70 70 71 72 71 71 72 72 73 71 71 71 71 72 73 73 73 73 73 74 74 73 72 75 72 73 75 74 75 77 74 74 74 73 73 72 73 73 73 73 74 75 75 75 76 76 75 75 74 74 74 74 73 74
31 26 22 30 56 56 59 59 61 59 60 60 61 60 61 61 59 62 61 63 63 63 65 65 65 59 57 58 58 58 57 58 58 58 59 60 61 63 65 66 67 68 69 70 70 71 71 71 71 72 72 73 70 70 70 71 72 72 72 72 73 73 73 73 72 71 72 72 73 75 74 75 77 74 74 74 76 73 72 72 72 75 74 74 74 74 75 75 76 75 74 75 73 73 73 72 74
32 27 22 23 52 54 58 59 60 57 59 59 59 52 56 59 60 60 60 61 61 62 63 65 65 58 57 58 58 58 58 58 58 58 59 60 60 62 64 66 67 67 68 69 70 71 71 71 71 71 72 71 70 70 69 70 71 71 72 72 73 72 72 72 72 71 72 72 73 75 74 75 76 75 73 73 74 74 73 73 74 74 73 74 74 74 75 75 74 74 73 73 74 73 72 72 73
30 29 24 20 22 37 57 58 59 56 58 60 56 50 54 58 59 59 60 61 59 61 62 64 64 58 58 58 58 58 58 59 58 58 58 60 60 62 64 65 66 67 68 68 69 70 71 70 70 70 72 70 71 70 69 69 70 71 71 71 72 71 71 71 71 71 72 72 74 75 75 76 75 75 74 74 74 74 74 74 74 73 73 74 73 75 74 74 74 73 74 72 73 74 72 73 73
29 24 21 20 20 22 53 58 57 54 57 59 55 50 52 56 58 59 60 60 59 59 59 60 59 58 58 59 59 59 58 59 59 58 58 59 59 61 63 65 65 66 66 68 69 70 69 69 69 69 71 70 70 70 69 69 70 70 70 73 71 71 71 70 70 70 72 73 75 74 74 75 75 75 76 75 74 74 74 74 74 74 74 74 74 76 75 74 74 74 75 74 73 73 74 72 73
28 25 23 21 21 20 22 50 56 56 56 57 55 49 54 55 58 58 60 59 58 57 57 59 60 59 59 59 59 60 59 59 59 58 58 59 59 60 63 64 65 65 66 67 68 68 68 68 70 69 70 69 69 69 69 69 69 69 70 71 70 71 70 70 70 72 73 74 73 73 74 75 74 74 76 75 74 74 74 74 75 76 76 75 75 75 75 75 74 74 74 75 74 71 72 72 72
29 24 23 21 19 20 20 24 56 55 55 55 56 52 52 54 57 58 59 58 57 57 57 58 60 59 59 59 59 60 59 60 59 58 58 58 59 60 62 66 64 65 65 66 67 67 67 68 68 69 69 69 70 70 69 69 69 70 70 70 72 70 70 70 71 72 73 74 73 73 74 75 74 74 75 75 74 75 75 75 75 76 76 76 76 75 74 75 74 74 74 75 75 72 72 71 71
28 28 24 20 19 19 19 20 41 55 54 53 54 51 52 55 56 57 58 58 57 57 57 58 59 58 59 59 59 60 60 60 60 59 58 58 58 59 61 63 64 64 65 66 66 66 67 68 68 69 69 69 70 70 69 70 70 70 69 69 70 70 71 71 71 73 74 74 73 74 75 74 75 74 75 77 74 76 74 75 75 76 76 76 75 74 74 75 75 74 73 74 76 73 72 72 70
28 28 22 19 16 16 16 19 34 54 52 51 51 50 52 55 56 56 58 58 56 56 57 58 58 58 59 58 59 60 60 60 60 59 58 58 59 59 60 61 63 64 64 65 66 65 67 67 68 69 69 69 69 69 70 69 70 69 68 68 69 71 69 71 72 73 73 73 75 75 75 75 75 75 76 76 75 75 75 75 75 76 76 75 74 73 73 73 72 73 73 73 73 75 75 73 73
30 29 27 24 18 14 13 14 19 53 52 50 50 50 52 55 56 56 57 57 56 56 56 58 58 58 58 58 58 60 60 60 60 59 59 58 58 59 60 61 62 63 63 64 64 65 66 67 68 67 69 69 69 69 69 69 68 68 67 66 66 67 68 69 71 72 73 73 75 75 76 76 76 76 77 76 75 76 75 75 75 76 76 75 74 73 73 74 73 74 74 76 73 72 73 73 72
29 28 26 23 21 18 18 17 19 49 49 49 49 49 51 54 56 56 57 57 56 56 56 57 58 58 58 58 58 59 59 60 60 59 59 59 58 59 60 60 62 61 62 63 63 65 66 67 67 67 68 69 69 68 69 68 68 67 66 66 65 66 69 69 69 71 72 74 75 75 76 76 77 77 77 76 75 75 75 75 75 76 76 74 74 74 74 76 76 75 74 70 73 71 70 72 72
28 27 25 21 19 17 16 16 16 18 46 47 48 49 50 53 55 56 56 56 56 56 56 57 58 57 58 58 58 58 59 59 59 59 58 59 59 59 60 60 60 60 61 62 62 65 66 67 67 67 68 69 69 68 69 67 69 68 66 66 65 67 71 69 70 71 73 73 74 75 76 77 77 77 77 77 75 74 75 74 75 76 75 75 74 74 74 75 74 74 73 71 71 72 73 74 72
28 26 22 19 19 16 14 17 11 11 20 46 48 47 49 52 54 55 55 56 56 56 57 58 59 57 58 58 58 58 58 58 58 58 58 58 58 59 60 60 60 59 60 61 62 64 65 67 66 67 68 69 69 69 70 67 69 68 67 66 66 68 68 69 71 72 73 73 74 75 76 76 77 77 77 77 75 74 74 74 76 76 75 76 75 74 74 74 74 73 73 74 72 69 70 70 75
21 21 20 18 16 15 14 14 14 12 11 42 48 48 50 51 52 53 54 57 57 56 58 58 59 59 59 59 58 59 58 58 58 58 58 58 58 59 59 60 60 59 59 60 61 63 65 66 66 67 68 69 68 70 69 68 71 68 68 68 69 68 68 69 71 72 72 73 73 74 75 76 77 76 77 78 77 75 75 76 76 75 75 75 76 75 74 75 74 74 73 73 72 70 69 70 71
20 16 16 16 15 15 15 15 14 12 11 37 48 46 47 50 51 52 53 55 56 57 57 58 59 58 60 59 58 59 59 59 59 58 58 58 58 59 59 60 60 59 60 60 61 63 65 65 66 67 68 69 68 69 69 69 70 67 67 65 65 65 65 67 70 71 71 72 73 74 75 76 76 76 77 77 77 76 76 76 76 75 74 75 76 76 75 74 74 74 74 73 73 73 70 70 69
18 16 16 16 15 15 15 15 14 16 14 22 44 47 43 49 50 52 53 53 54 56 57 58 59 58 60 59 59 60 59 58 59 58 58 58 58 59 59 60 60 60 60 60 61 63 65 65 66 67 68 69 69 69 70 69 70 67 66 65 65 64 64 65 68 71 71 72 72 73 74 75 75 75 76 76 76 76 76 76 75 76 75 76 78 76 75 74 75 75 74 74 73 74 72 69 70
17 19 19 19 19 16 15 15 12 16 21 17 27 38 40 46 49 51 53 53 53 54 56 57 59 59 59 60 59 60 60 59 58 58 58 58 59 59 59 59 60 60 60 60 61 63 65 65 66 68 68 69 69 70 70 69 69 67 66 65 65 65 64 64 66 69 71 72 71 72 74 74 74 75 75 75 75 76 75 76 75 76 76 76 77 76 75 74 74 75 75 75 74 75 73 70 70
20 20 18 17 18 18 17 16 13 13 13 14 19 23 33 45 48 51 52 51 52 53 54 56 58 59 59 59 60 60 60 60 59 58 58 58 59 59 59 59 60 61 61 61 61 63 65 65 66 68 68 69 69 70 70 69 69 68 67 65 65 65 64 65 67 68 70 72 70 71 73 73 74 74 74 74 74 75 76 75 75 75 76 76 78 76 76 74 74 74 74 74 73 74 75 73 72
21 20 20 22 22 20 23 18 16 23 15 15 21 14 14 22 39 50 51 51 51 52 54 55 57 59 59 59 60 60 60 61 60 59 58 58 59 59 60 60 60 61 61 62 62 63 65 65 66 68 68 69 69 70 70 69 69 69 67 66 65 64 65 65 66 65 69 70 70 70 72 72 73 73 73 74 74 74 75 75 75 75 75 75 77 76 76 74 73 73 74 74 74 73 74 75 73
22 19 18 18 20 22 30 30 31 22 13 18 18 13 9 10 35 49 49 50 51 52 53 55 57 59 59 59 59 60 60 61 60 60 59 59 59 60 60 60 60 61 61 62 62 63 65 65 65 67 69 69 69 70 70 69 68 68 66 66 65 64 64 64 65 64 66 67 69 69 70 71 72 72 73 73 73 74 74 74 74 74 75 76 76 75 75 74 74 72 74 75 75 74 73 74 75
18 19 17 18 20 21 26 27 29 16 20 29 22 12 7 10 22 47 50 51 52 52 52 53 57 59 59 59 59 60 60 60 60 60 60 59 59 59 60 60 60 61 61 62 62 62 65 65 65 66 68 69 69 69 70 69 68 68 66 66 65 64 63 64 64 64 64 65 68 69 70 70 71 71 72 73 73 73 74 74 75 74 74 75 75 74 73 73 73 73 75 75 75 75 74 74 74
17 23 25 16 23 21 17 17 14 14 15 23 19 14 16 17 20 44 49 50 51 51 52 53 56 59 60 60 59 60 60 60 60 60 60 60 59 59 60 60 61 61 61 62 62 62 64 66 66 66 67 69 69 69 69 69 68 67 66 66 66 65 64 64 63 64 63 63 66 68 69 69 71 71 71 72 72 73 74 74 74 74 74 74 74 73 73 73 73 72 74 75 74 75 75 74 74
17 17 26 18 16 16 14 23 22 20 18 22 17 16 19 22 17 31 47 48 49 50 51 52 56 59 60 60 60 60 60 60 60 60 60 60 59 59 60 60 61 61 61 62 62 63 63 65 66 66 66 68 69 68 68 69 68 67 66 66 66 66 65 64 63 64 65 63 64 68 69 69 70 70 70 72 72 72 73 73 74 74 74 74 74 74 73 73 74 72 73 74 74 74 75 75 75
18 19 18 22 24 18 16 19 13 12 15 19 20 15 21 11 19 19 45 47 47 49 50 51 55 58 60 60 60 60 61 60 60 60 60 60 60 59 60 60 61 62 62 61 62 64 63 65 66 66 67 67 69 69 68 68 68 68 66 65 67 66 66 64 62 64 65 65 64 66 69 69 70 70 70 71 73 72 73 73 73 73 74 74 74 74 73 73 75 74 73 73 74 74 74 75 75
20 19 21 19 20 26 16 25 21 26 19 18 23 18 24 14 28 26 17 32 41 48 49 51 53 57 59 59 59 59 60 60 60 60 60 60 61 60 60 60 61 62 62 62 63 64 64 65 66 66 67 68 68 69 68 67 68 68 66 65 66 66 68 66 64 64 66 66 66 65 68 69 70 70 70 71 72 72 72 73 74 73 74 74 74 74 73 72 74 74 74 73 73 74 74 73 74
23 18 17 17 23 16 23 33 25 24 19 15 32 18 17 22 19 16 15 14 29 41 47 49 51 56 58 58 58 59 59 60 60 60 60 60 61 60 60 61 61 62 63 62 63 64 65 65 66 66 66 68 68 69 68 67 67 68 67 65 66 66 67 67 64 63 63 66 66 66 67 68 70 70 70 71 71 72 72 73 73 73 73 74 74 74 74 73 73 73 73 73 73 74 74 73 73
19 18 19 20 21 20 19 14 25 18 14 20 23 21 23 18 20 27 16 12 8 42 46 49 50 55 57 58 58 58 59 59 60 60 60 60 61 61 60 61 61 61 63 63 64 64 66 66 66 66 66 67 68 69 68 68 67 67 67 67 66 66 66 66 65 63 63 64 65 66 66 67 68 69 70 71 71 71 71 74 73 73 73 73 74 74 74 74 74 74 73 73 73 74 74 73 73
14 14 21 17 21 19 28 21 15 16 18 19 22 23 27 22 22 25 15 12 10 18 43 48 50 54 56 57 57 58 58 59 59 59 59 60 60 61 60 60 61 61 63 63 64 65 66 66 66 66 66 67 68 69 69 69 67 67 67 67 66 66 66 65 66 66 64 64 64 64 65 66 66 68 70 71 71 71 71 72 73 73 73 73 74 74 74 74 74 73 74 73 74 74 73 73 73
14 14 13 20 20 24 22 22 24 22 20 22 19 24 21 31 24 24 17 21 33 42 43 47 51 54 56 56 56 57 57 58 58 59 59 59 60 61 61 60 61 61 62 63 64 65 65 66 67 66 67 67 68 69 70 69 68 67 67 68 67 66 67 66 65 66 66 65 63 64 64 65 65 66 67 69 70 70 71 71 72 72 72 72 73 74 74 74 74 74 74 74 74 74 73 73 73
10 12 16 18 19 22 20 25 19 22 22 21 22 18 29 28 32 38 42 45 48 50 46 45 49 53 55 55 56 56 57 57 57 58 58 59 60 60 61 61 61 62 63 64 64 65 66 67 67 67 67 67 68 69 69 69 69 68 68 67 67 67 66 66 65 65 66 66 65 64 63 63 66 66 66 66 67 68 69 71 71 72 72 72 72 73 74 74 74 74 74 74 74 74 73 73 73
11 14 19 20 20 21 20 20 24 24 19 20 17 18 29 27 31 33 43 47 49 51 52 44 47 52 54 55 55 56 56 56 57 57 58 58 60 60 61 61 61 62 63 64 64 65 66 67 67 68 67 67 68 68 69 70 70 69 68 68 68 68 67 66 66 65 65 65 66 65 64 64 64 65 67 65 65 66 67 69 71 71 71 72 72 73 74 74 74 74 74 74 73 74 73 73 73